Cotulla, TX

8:12 PM CST on November 21, 2019 (GMT -0600)
Cotulla-La Salle County

Weather History for KCOT - August, 2019

Change the Weather History Date:

Saturday, August 31, 2019

  Actual Average Record
Temperature  
Mean Temperature 90 °F -  
Max Temperature 102 °F 92 °F 107 °F (2005)
Min Temperature 78 °F 72 °F 71 °F (1997)
Cooling Degree Days 25    
Growing Degree Days 40 (Base 50)    
Moisture  
Dew Point 68 °F    
Average Humidity 55    
Maximum Humidity 90    
Minimum Humidity 24    
Precipitation  
Precipitation 0.00 in - - ()
Sea Level Pressure  
Sea Level Pressure 29.94 in    
Wind  
Wind Speed 10 mph ()    
Max Wind Speed 20 mph    
Max Gust Speed 25 mph    
Visibility 10.0 miles    
Events Thunderstorm    
Averages and records for this station are not official NWS values.
T = Trace of Precipitation, MM = Missing Value Source: Averaged Metar Reports

Daily Weather History Graph

Daily Weather History Graph

Search for Another Location

Airport or City:

Astronomy

Aug. 31, 2019 Rise Set
Actual Time 7:14 AM CDT 7:59 PM CDT
Civil Twilight 6:50 AM CDT 8:23 PM CDT
Nautical Twilight 6:22 AM CDT 8:51 PM CDT
Astronomical Twilight 5:53 AM CDT 9:20 PM CDT
Moon 8:30 AM CDT (8/31) 9:19 PM CDT (8/31)
Length of Visible Light 13h 32m
Length of Day
12h 44m
New Moon, 3% of the Moon is Illuminated
Aug 31
New Moon
Sep 5
First Quarter
Sep 13
Full
Sep 21
Last Quarter
Sep 28
New

Hourly Weather History & Observations

Time (CDT) Temp. Heat Index Dew Point Humidity Pressure Visibility Wind Dir Wind Speed Gust Speed Precip Events Conditions
12:53 AM 84.0 °F 87.8 °F 69.1 °F 61% 29.96 in 10.0 mi SE 18.4 mph 23.0 mph N/A   Clear
1:53 AM 82.0 °F 86.7 °F 72.0 °F 71% 29.96 in 10.0 mi SSE 12.7 mph - N/A   Clear
2:53 AM 81.0 °F 86.2 °F 73.9 °F 79% 29.97 in 10.0 mi SE 12.7 mph - N/A   Clear
3:53 AM 80.1 °F 84.5 °F 73.9 °F 81% 29.96 in 10.0 mi SE 9.2 mph - N/A   Scattered Clouds
4:53 AM 79.0 °F - 73.9 °F 84% 29.97 in 10.0 mi ESE 5.8 mph - N/A   Clear
5:53 AM 79.0 °F - 75.0 °F 88% 29.97 in 10.0 mi East 4.6 mph - N/A   Clear
6:53 AM 78.1 °F - 75.0 °F 90% 29.97 in 10.0 mi East 5.8 mph - N/A   Clear
7:53 AM 78.1 °F - 75.0 °F 90% 29.98 in 10.0 mi East 5.8 mph - N/A   Clear
8:53 AM 82.0 °F 88.6 °F 75.0 °F 79% 29.99 in 10.0 mi ESE 6.9 mph - N/A   Clear
9:53 AM 84.9 °F 91.4 °F 73.0 °F 67% 29.99 in 10.0 mi SE 5.8 mph - N/A   Clear
10:53 AM 88.0 °F 92.1 °F 69.1 °F 53% 29.99 in 10.0 mi Variable 3.5 mph - N/A   Partly Cloudy
11:53 AM 93.0 °F 95.0 °F 64.9 °F 39% 29.98 in 10.0 mi SE 8.1 mph - N/A   Clear
12:53 PM 93.9 °F 94.8 °F 62.1 °F 35% 29.97 in 10.0 mi Variable 4.6 mph - N/A   Partly Cloudy
1:53 PM 97.0 °F 97.8 °F 62.1 °F 31% 29.95 in 10.0 mi Variable 6.9 mph - N/A   Partly Cloudy
2:53 PM 100.0 °F 100.7 °F 60.1 °F 27% 29.92 in 10.0 mi SE 11.5 mph - N/A   Scattered Clouds
3:53 PM 102.0 °F 102.2 °F 59.0 °F 24% 29.89 in 10.0 mi Variable 4.6 mph - N/A   Clear
4:53 PM 100.0 °F 101.8 °F 62.1 °F 29% 29.86 in 10.0 mi SE 16.1 mph 21.9 mph N/A   Partly Cloudy
5:11 PM 99.0 °F 101.7 °F 64.0 °F 32% 29.90 in 10.0 mi ESE 19.6 mph - N/A Thunderstorm Partly Cloudy
5:44 PM 93.9 °F 97.5 °F 66.9 °F 41% 29.90 in 10.0 mi ENE 15.0 mph - N/A   Partly Cloudy
5:53 PM 93.0 °F 96.4 °F 66.9 °F 42% 29.88 in 10.0 mi NE 13.8 mph - N/A   Partly Cloudy
6:51 PM 93.2 °F 96.2 °F 66.2 °F 41% 29.91 in 10.0 mi SE 18.4 mph 25.3 mph N/A   Clear
6:53 PM 93.0 °F 95.9 °F 66.0 °F 41% 29.88 in 10.0 mi SE 16.1 mph 25.3 mph N/A   Clear
7:53 PM 90.0 °F 91.7 °F 64.9 °F 43% 29.90 in 10.0 mi ESE 15.0 mph - N/A   Clear
8:53 PM 88.0 °F 91.4 °F 68.0 °F 51% 29.92 in 10.0 mi ESE 9.2 mph - N/A   Clear
9:53 PM 87.1 °F 90.6 °F 68.0 °F 53% 29.94 in 10.0 mi ESE 11.5 mph - N/A   Clear
10:53 PM 84.9 °F 87.6 °F 66.9 °F 55% 29.95 in 10.0 mi SE 11.5 mph - N/A   Clear
11:53 PM 84.0 °F 86.5 °F 66.9 °F 56% 29.96 in 10.0 mi SE 10.4 mph - N/A   Clear